Hourly Data Report for July 20, 2021

POND INLET A
NUNAVUT
Current Station Operator: NAVCAN

72°41'22.000" N
77°58'08.000" W
61.60 m
2403206
71095
YIO

Download Data

Hourly Data (July 2021)
Hourly Data Report for July 20, 2021
TIME
LST
Temp Definition
°C
Dew Point Definition
°C
Rel Hum Definition
%
Precip. Amount Definition
mm

Wind Dir Definition
10's deg

Wind Spd Definition
km/h
Visibility Definition
km
Stn Press Definition
kPa
Hmdx Definition


Wind Chill Definition


Weather Definition


00:00 7.6 6.9 95 1.2 6 17 12.9 98.98     Rain
01:00 8.2 7.3 94 1.0 6 13 16.1 98.93     Rain
02:00 8.2 7.3 94 0.0 5 13 16.1 98.88     Rain
03:00 8.3 7.3 93 0.5 4 8 16.1 98.87     LegendNANA
04:00 6.3 6.0 98 0.0 LegendMM 4 16.1 98.86     LegendNANA
05:00 7.4 7.0 97 0.0 19 8 16.1 98.85     LegendNANA
06:00 5.7 5.3 97 0.0 LegendMM 4 16.1 98.85     LegendNANA
07:00 6.7 5.9 94 0.0 36 8 16.1 98.88     LegendNANA
08:00 7.2 6.8 97 0.2   0 16.1 98.90     LegendNANA
09:00 8.6 6.0 84 0.0 LegendMM 15 16.1 98.92     LegendNANA
10:00 7.7 4.8 82 0.0 6 37 16.1 98.97     Rain
11:00 7.0 4.1 82 0.2 6 30 16.1 99.06     Rain
12:00 7.7 4.2 78 0.0 8 34 16.1 99.10     Rain
13:00 6.7 2.6 75 0.2 6 35 16.1 99.23     Rain
14:00 6.9 3.3 78 0.2 6 32 16.1 99.30     Rain
15:00 9.1 3.7 69 0.0 7 26 16.1 99.35     LegendNANA
16:00 8.9 3.4 68 0.0 9 34 16.1 99.38     LegendNANA
17:00 9.1 3.3 67 0.0 9 26 16.1 99.43     LegendNANA
18:00 9.3 2.8 64 0.0 10 26 16.1 99.47     LegendNANA
19:00 9.2 3.4 67 0.0 10 24 16.1 99.51     LegendNANA
20:00 9.2 3.1 66 0.0 10 21 16.1 99.54     LegendNANA
21:00 6.4 2.4 75 0.0 29 9 16.1 99.59     LegendNANA
22:00 4.6 2.4 86 0.0 29 8 16.1 99.59     LegendNANA
23:00 4.5 2.0 84 0.0 29 8 16.1 99.61     LegendNANA

Notes on Data Quality.

Legend

  • E = Estimated
  • M = Missing
  • NA = Not Available*
  • [empty] = Indicates an unobserved value
Date modified: